Location: San Pelegr�n
(42.1868°N, 0.0079°E)
Time: 21:56:43
(UTC+00:00)

Cosmos 1939 Rocket - Pass Details

Date: 24 January 2020
Orbit: 534 x 583 km, 97.4° (Epoch: 20 February)

Event Time Altitude Azimuth Distance (km) Brightness Sun altitude
Rises 18:24:05 0° 156° (SSE) 2,686 6.2 -14.9°
Reaches altitude 10° 18:26:12 10° 152° (SSE) 1,805 5.3 -15.3°
Maximum altitude 18:30:01 55° 74° (ENE) 666 2.8 -16.0°
Drops below altitude 10° 18:33:55 10° 357° (N) 1,846 5.4 -16.7°
Sets 18:36:06 0° 353° (N) 2,755 6.4 -17.1°
